Location: Marcé
(47.5801°N, 0.3280°W)
Time: 14:13:51
(UTC+01:00)

Explorer 11/Cluster Stage 4 - Pass Details

Date: 06 December 2021
Orbit: 467 x 1255 km, 28.8° (Epoch: 23 January)

Event Time Altitude Azimuth Distance (km) Brightness Sun altitude
Exits shadow 05:50:37 13° 205° (SSW) 2,804 9.2 -26.6°
Maximum altitude 05:52:08 14° 192° (SSW) 2,790 9.3 -26.4°
Drops below altitude 10° 05:55:37 10° 166° (SSE) 3,133 9.9 -25.8°
Sets 06:00:24 0° 142° (SE) 4,169 10.9 -25.0°
